TAP123 LEZL-LPPT

Flight info

Callsign TAP123
Flight time 0h 37m
Altitude 36000
Route ONUBA DCT NAPES DCT OSLEP DCT MINTA DCT VATZI
Aircraft A320/M-SDE3FGHIRWY/LB1

Departure

Time 2026-05-04 17:56
Airport Seville Airport (LEZL)

Arrival

Time 2026-05-04 18:33
Airport Lisbon Humberto Delgado Airport (LPPT)
Time Latitude Longitude Altitude Speed Heading
2026-05-04 17:56 37.32555 -6.29087 14231 ft 347 kts 258°
2026-05-04 17:56 37.32046 -6.32069 14923 ft 350 kts 259°
2026-05-04 17:56 37.31545 -6.35068 15614 ft 353 kts 259°
2026-05-04 17:57 37.31042 -6.38094 16296 ft 355 kts 259°
2026-05-04 17:57 37.30534 -6.41141 16979 ft 358 kts 259°
2026-05-04 17:57 37.30018 -6.44216 17648 ft 361 kts 259°
2026-05-04 17:57 37.29499 -6.47306 18326 ft 364 kts 259°
2026-05-04 17:58 37.28978 -6.50420 18917 ft 367 kts 259°
2026-05-04 17:58 37.28451 -6.53581 19517 ft 369 kts 259°
2026-05-04 17:58 37.27922 -6.56744 20094 ft 372 kts 259°
2026-05-04 17:58 37.27386 -6.59936 20673 ft 374 kts 259°
2026-05-04 17:59 37.26844 -6.63143 21234 ft 377 kts 259°
2026-05-04 17:59 37.26299 -6.66371 21769 ft 379 kts 259°
2026-05-04 17:59 37.25197 -6.72884 22804 ft 384 kts 259°
2026-05-04 18:00 37.24637 -6.76180 23312 ft 386 kts 259°
2026-05-04 18:00 37.24054 -6.79484 23759 ft 389 kts 258°
2026-05-04 18:00 37.23442 -6.82794 24155 ft 391 kts 258°
2026-05-04 18:00 37.22813 -6.86124 24554 ft 393 kts 258°
2026-05-04 18:01 37.22176 -6.89462 24944 ft 395 kts 258°
2026-05-04 18:01 37.21538 -6.92815 25323 ft 396 kts 258°
2026-05-04 18:01 37.20900 -6.96184 25702 ft 398 kts 258°
2026-05-04 18:02 37.19615 -7.02976 26429 ft 402 kts 258°
2026-05-04 18:02 37.18972 -7.06398 26780 ft 403 kts 258°
2026-05-04 18:02 37.18323 -7.09824 27117 ft 405 kts 258°
2026-05-04 18:02 37.17668 -7.13270 27446 ft 407 kts 258°
2026-05-04 18:03 37.17009 -7.16727 27765 ft 408 kts 258°
2026-05-04 18:03 37.16351 -7.20197 28069 ft 410 kts 258°
2026-05-04 18:03 37.15692 -7.23678 28365 ft 412 kts 259°
2026-05-04 18:03 37.15025 -7.27178 28649 ft 413 kts 258°
2026-05-04 18:04 37.14354 -7.30681 28917 ft 414 kts 258°
2026-05-04 18:04 37.13767 -7.34222 29156 ft 414 kts 264°
2026-05-04 18:04 37.14067 -7.41357 29836 ft 411 kts 283°
2026-05-04 18:05 37.14969 -7.44748 30196 ft 411 kts 290°
2026-05-04 18:05 37.16049 -7.48059 30499 ft 409 kts 290°
2026-05-04 18:05 37.17121 -7.51356 30816 ft 408 kts 290°
2026-05-04 18:05 37.18186 -7.54643 31114 ft 407 kts 290°
2026-05-04 18:06 37.20305 -7.61206 31746 ft 405 kts 290°
2026-05-04 18:06 37.21358 -7.64477 32061 ft 404 kts 290°
2026-05-04 18:06 37.22405 -7.67734 32394 ft 402 kts 290°
2026-05-04 18:07 37.23452 -7.70989 32739 ft 401 kts 289°
2026-05-04 18:07 37.24495 -7.74227 33075 ft 400 kts 289°
2026-05-04 18:07 37.25534 -7.77453 33405 ft 399 kts 289°
2026-05-04 18:07 37.26572 -7.80681 33713 ft 398 kts 289°
2026-05-04 18:08 37.27599 -7.83901 34010 ft 397 kts 289°
2026-05-04 18:08 37.28618 -7.87111 34277 ft 396 kts 289°
2026-05-04 18:08 37.29640 -7.90323 34544 ft 395 kts 289°
2026-05-04 18:08 37.30662 -7.93528 34792 ft 395 kts 289°
2026-05-04 18:09 37.32707 -7.99934 35290 ft 395 kts 289°
2026-05-04 18:09 37.34749 -8.06332 35744 ft 394 kts 288°
2026-05-04 18:10 37.35765 -8.09533 35965 ft 394 kts 288°
2026-05-04 18:10 37.36793 -8.12779 36064 ft 395 kts 288°
2026-05-04 18:10 37.38812 -8.19172 36083 ft 396 kts 288°
2026-05-04 18:11 37.40854 -8.25650 36088 ft 396 kts 288°
2026-05-04 18:11 37.42886 -8.32094 36090 ft 396 kts 288°
2026-05-04 18:12 37.43897 -8.35305 35734 ft 394 kts 288°
2026-05-04 18:12 37.44905 -8.38508 34969 ft 395 kts 289°
2026-05-04 18:12 37.45915 -8.41728 34176 ft 396 kts 289°
2026-05-04 18:12 37.46925 -8.44953 33282 ft 397 kts 289°
2026-05-04 18:13 37.47940 -8.48187 32343 ft 398 kts 289°
2026-05-04 18:13 37.48959 -8.51438 31378 ft 401 kts 289°
2026-05-04 18:13 37.51009 -8.58012 29247 ft 406 kts 289°
2026-05-04 18:14 37.52043 -8.61343 28006 ft 410 kts 289°
2026-05-04 18:14 37.53084 -8.64707 26720 ft 415 kts 289°
2026-05-04 18:14 37.54138 -8.68103 25765 ft 415 kts 290°
2026-05-04 18:15 37.57073 -8.74302 24703 ft 417 kts 313°
2026-05-04 18:15 37.62216 -8.77775 23065 ft 425 kts 335°
2026-05-04 18:15 37.64977 -8.79038 22235 ft 421 kts 335°
2026-05-04 18:16 37.67722 -8.80294 21488 ft 417 kts 335°
2026-05-04 18:16 37.70434 -8.81541 20772 ft 413 kts 335°
2026-05-04 18:16 37.73115 -8.82779 20081 ft 409 kts 335°
2026-05-04 18:17 37.78401 -8.85239 18781 ft 401 kts 335°
2026-05-04 18:17 37.81005 -8.86454 18125 ft 398 kts 335°
2026-05-04 18:17 37.86149 -8.88856 16803 ft 390 kts 335°
2026-05-04 18:18 37.88683 -8.90038 16201 ft 387 kts 335°
2026-05-04 18:18 37.91195 -8.91212 15605 ft 383 kts 335°
2026-05-04 18:18 37.93685 -8.92378 15016 ft 380 kts 336°
2026-05-04 18:18 37.96148 -8.93534 14443 ft 376 kts 336°
2026-05-04 18:19 38.01023 -8.95814 13181 ft 370 kts 336°
2026-05-04 18:19 38.03431 -8.96939 12496 ft 368 kts 336°
2026-05-04 18:19 38.05824 -8.98063 11804 ft 365 kts 336°
2026-05-04 18:20 38.08187 -8.99174 11402 ft 356 kts 337°
2026-05-04 18:20 38.10452 -9.00235 11277 ft 339 kts 337°
2026-05-04 18:20 38.12608 -9.01244 11156 ft 323 kts 337°
2026-05-04 18:20 38.14672 -9.02213 11027 ft 310 kts 337°
2026-05-04 18:21 38.14777 -9.02262 11022 ft 309 kts 337°
2026-05-04 18:21 38.16084 -9.02874 10941 ft 299 kts 336°
2026-05-04 18:21 38.17997 -9.03774 10808 ft 288 kts 336°
2026-05-04 18:22 38.19849 -9.04649 10589 ft 281 kts 336°
2026-05-04 18:22 38.21670 -9.05513 10252 ft 279 kts 336°
2026-05-04 18:22 38.23479 -9.06373 9889 ft 277 kts 336°
2026-05-04 18:22 38.25290 -9.07231 9490 ft 276 kts 337°
2026-05-04 18:23 38.27082 -9.08076 9108 ft 274 kts 337°
2026-05-04 18:23 38.28862 -9.08916 8720 ft 272 kts 337°
2026-05-04 18:23 38.30629 -9.09753 8335 ft 270 kts 337°
2026-05-04 18:23 38.32383 -9.10586 7940 ft 268 kts 337°
2026-05-04 18:24 38.34126 -9.11415 7546 ft 266 kts 337°
2026-05-04 18:24 38.35831 -9.12221 7369 ft 255 kts 338°
2026-05-04 18:24 38.36915 -9.12732 7287 ft 247 kts 337°
2026-05-04 18:24 38.38491 -9.13473 7159 ft 236 kts 337°
2026-05-04 18:25 38.39989 -9.14181 7038 ft 224 kts 337°
2026-05-04 18:25 38.41422 -9.14861 6848 ft 216 kts 337°
2026-05-04 18:25 38.42822 -9.15527 6557 ft 214 kts 337°
2026-05-04 18:25 38.44214 -9.16190 6231 ft 213 kts 337°
2026-05-04 18:26 38.45593 -9.16850 5940 ft 211 kts 338°
2026-05-04 18:26 38.46960 -9.17503 5650 ft 209 kts 338°
2026-05-04 18:26 38.48312 -9.18149 5358 ft 207 kts 337°
2026-05-04 18:26 38.49679 -9.18800 5062 ft 205 kts 338°
2026-05-04 18:27 38.51012 -9.19434 4755 ft 203 kts 338°
2026-05-04 18:27 38.52302 -9.20046 4579 ft 197 kts 338°
2026-05-04 18:27 38.53560 -9.20647 4443 ft 189 kts 337°
2026-05-04 18:27 38.54771 -9.21277 4288 ft 182 kts 336°
2026-05-04 18:28 38.55933 -9.21901 4075 ft 180 kts 336°
2026-05-04 18:28 38.57082 -9.22519 4007 ft 178 kts 335°
2026-05-04 18:28 38.58228 -9.23124 4009 ft 180 kts 340°
2026-05-04 18:28 38.59467 -9.23343 3927 ft 183 kts
2026-05-04 18:29 38.60700 -9.22898 3744 ft 186 kts 18°
2026-05-04 18:29 38.61885 -9.22263 3537 ft 182 kts 18°
2026-05-04 18:29 38.63043 -9.21644 3279 ft 180 kts 17°
2026-05-04 18:29 38.64194 -9.21031 3013 ft 177 kts 18°
2026-05-04 18:30 38.66398 -9.19855 2564 ft 163 kts 18°
2026-05-04 18:30 38.67414 -9.19313 2351 ft 155 kts 18°
2026-05-04 18:30 38.68385 -9.18796 2136 ft 147 kts 16°
2026-05-04 18:31 38.69301 -9.18307 1938 ft 140 kts 15°
2026-05-04 18:31 38.70193 -9.17832 1770 ft 138 kts 17°
2026-05-04 18:31 38.71074 -9.17363 1573 ft 136 kts 17°
2026-05-04 18:31 38.71946 -9.16898 1408 ft 136 kts 15°
2026-05-04 18:32 38.72818 -9.16433 1205 ft 136 kts 15°
2026-05-04 18:32 38.73701 -9.15962 1013 ft 138 kts 16°
2026-05-04 18:32 38.74574 -9.15496 828 ft 135 kts 16°
2026-05-04 18:32 38.75452 -9.15018 629 ft 138 kts 19°
2026-05-04 18:33 38.76340 -9.14544 432 ft 139 kts 18°
2026-05-04 18:33 38.77217 -9.14074 355 ft 130 kts 16°
2026-05-04 18:33 38.77908 -9.13711 351 ft 82 kts 22°
2026-05-04 18:33 38.78263 -9.13494 352 ft 42 kts 39°
2026-05-04 18:34 38.78372 -9.13335 352 ft 12 kts 69°
2026-05-04 18:34 38.78299 -9.13274 353 ft 18 kts 197°
2026-05-04 18:34 38.78187 -9.13325 349 ft 16 kts 202°
2026-05-04 18:34 38.78105 -9.13368 352 ft 0 kts 201°
2026-05-04 18:35 38.78086 -9.13377 353 ft 5 kts 201°
2026-05-04 18:35 38.78053 -9.13391 353 ft 5 kts 195°
2026-05-04 18:36 38.78033 -9.13395 350 ft 0 kts 189°
2026-05-04 18:37 38.78032 -9.13395 350 ft 1 kts 189°
2026-05-04 18:37 38.77977 -9.13401 354 ft 10 kts 178°
2026-05-04 18:37 38.77911 -9.13387 355 ft 9 kts 167°
2026-05-04 18:38 38.77850 -9.13370 347 ft 9 kts 167°
2026-05-04 18:38 38.77793 -9.13354 352 ft 8 kts 167°